Tracking 30115 objects as of 17-Jan-2025
HD Live streaming from Space Station
objects crossing your sky now

STARLINK-2696

Track STARLINK-2696 now!
10-day predictions
STARLINK-2696 is classified as:


NORAD ID: 48484
Int'l Code: 2021-040BJ
Perigee: 489.1 km
Apogee: 493.8 km
Inclination: 53.1 °
Period: 94.3 minutes
Semi major axis: 6862 km
RCS: Unknown
Launch date: May 9, 2021
Source: United States (US)
Launch site: AIR FORCE EASTERN TEST RANGE (AFETR)
Your satellite tracking list
Your tracking list is empty




NASA's NSSDC Master Catalog

Two Line Element Set (TLE):
1 48484U 21040BJ  25016.70671032  .00043992  00000-0  16335-2 0  9992
2 48484  53.0551 261.9641 0003391 108.1660 251.9708 15.27156163203662
Source of the keplerian elements: AFSPC